Wind_Speed
30 30 30 32 29 30 31 33 34 34 34 35 26 20 22 29 35 38 41 42 40 39 42 42 42 37 38 41 47 69 74 76 74 64 68 63 58 56 54 50 46 42 48 44
32 30 33 26 29 30 31 34 34 34 35 28 24 25 28 30 35 40 42 40 38 37 41 42 40 42 40 39 40 47 73 78 78 72 67 66 62 59 53 52 48 42 44 43
30 25 34 28 28 31 31 34 37 35 30 26 27 26 21 29 41 41 43 36 32 35 34 35 38 40 44 44 44 41 54 77 80 77 71 69 66 63 58 56 54 47 46 41
28 28 25 27 29 30 31 33 33 32 29 27 25 30 26 31 35 41 31 32 31 36 39 39 39 41 45 45 46 48 45 67 81 80 75 73 68 63 56 55 54 47 46 44
22 26 24 24 29 30 32 32 31 29 29 28 21 23 27 27 35 30 29 33 34 40 41 38 37 41 48 48 46 49 51 52 78 84 78 76 73 66 62 57 56 51 47 45
17 20 25 20 24 27 31 32 32 20 24 21 18 24 29 38 33 34 35 34 40 46 39 45 48 45 46 53 54 49 50 54 64 84 80 78 73 70 64 62 57 51 48 45
16 19 24 18 18 23 28 35 34 23 19 19 25 26 32 32 33 34 42 45 43 48 47 51 47 53 49 53 56 55 52 50 62 79 84 78 76 71 67 63 60 49 48 45
15 19 23 23 25 24 26 28 25 30 27 19 17 21 25 31 35 36 44 45 53 55 50 45 47 46 45 50 55 54 54 53 63 69 85 80 75 71 68 65 61 52 49 46
18 17 23 24 25 26 17 19 23 30 25 25 15 18 33 34 34 39 40 43 45 41 46 41 38 39 43 40 48 57 56 59 63 61 83 80 75 70 66 63 62 53 52 52
21 19 20 21 23 19 19 23 23 25 26 28 25 25 36 33 37 42 40 41 43 36 39 36 41 24 26 29 36 39 38 57 61 57 78 79 73 69 67 59 57 55 55 52
20 20 17 19 14 11 19 16 24 22 23 28 31 23 37 39 44 46 42 34 40 31 36 32 22 19 16 11 26 27 39 52 53 49 68 77 72 68 66 60 64 57 59 50
23 19 18 19 11 5 16 20 19 19 22 24 25 27 37 40 41 50 38 36 32 30 30 30 29 20 22 3 10 21 40 39 47 43 64 80 41 70 67 62 50 63 53 49
21 19 18 15 6 18 19 16 16 19 21 23 25 28 31 34 36 40 34 36 28 26 23 25 26 19 14 11 17 27 19 40 41 47 67 76 41 64 66 66 56 54 51 48
19 20 20 19 17 16 14 14 13 20 18 22 23 30 29 32 32 35 33 34 23 23 21 27 22 17 12 13 25 27 26 14 19 33 68 70 50 68 58 62 53 48 51 48
18 18 18 20 20 19 14 12 15 19 22 23 22 27 30 34 37 35 30 31 23 23 23 23 27 27 12 25 15 31 22 25 34 56 69 62 61 68 65 53 66 64 58 50
24 23 22 16 18 19 16 17 13 25 23 23 19 23 29 30 34 38 36 29 25 25 26 25 29 27 8 13 19 21 25 30 36 51 63 42 37 61 67 63 54 43 47 54
22 22 22 21 15 13 21 19 18 23 23 22 20 25 29 31 32 35 32 32 28 25 24 25 24 18 14 4 16 21 27 29 32 39 50 69 31 61 58 48 40 32 42 47
20 22 21 21 20 15 17 21 21 24 26 22 23 23 28 32 36 36 35 33 27 23 25 20 17 12 16 19 10 22 27 26 30 32 46 61 24 38 41 49 29 31 35 33
20 22 22 20 19 16 16 19 22 25 26 17 23 26 24 24 29 34 32 33 17 20 23 23 16 12 18 11 8 25 22 38 33 31 35 57 41 33 44 41 25 23 29 16
24 22 20 19 18 18 16 19 23 25 26 26 28 29 26 21 21 25 29 27 31 22 20 22 20 18 15 13 16 17 11 33 36 29 39 33 22 26 40 38 29 30 17 11
24 24 25 24 21 22 22 23 22 25 25 25 27 29 28 22 20 23 25 28 27 24 23 21 22 18 15 8 17 15 23 35 40 38 54 30 55 18 21 28 33 31 22 16
24 25 23 24 22 22 23 22 24 23 24 23 23 27 28 23 18 19 23 25 24 25 24 22 19 11 5 5 21 2 11 45 33 25 25 49 32 25 25 29 26 24 16 17
28 28 23 24 23 23 23 24 24 25 25 21 22 24 24 24 19 17 18 23 22 23 25 22 24 8 4 7 17 16 4 35 29 26 20 27 26 25 21 22 9 12 14 16
29 29 27 27 23 26 24 25 25 25 26 22 21 21 22 21 22 19 17 19 22 21 22 22 18 13 9 9 11 13 10 25 28 31 23 24 26 29 18 12 14 16 16 14
29 30 29 28 27 27 26 27 25 24 24 25 20 21 20 21 23 21 17 17 20 23 22 20 21 15 16 14 14 13 12 9 6 4 16 14 14 10 14 16 19 18 16 13
34 36 35 31 30 30 26 26 28 25 24 23 21 21 20 20 20 22 17 14 18 22 24 23 20 22 17 20 18 18 16 15 15 17 19 19 17 18 18 20 16 13 20 24
Wind_Direction
312 309 303 298 297 296 294 291 288 289 296 290 291 279 275 278 284 286 296 293 290 284 281 284 268 267 262 258 244 227 223 226 229 224 227 228 229 235 238 237 240 238 242 246
309 306 297 304 291 289 288 289 291 291 299 289 282 279 281 291 289 295 295 295 289 287 281 275 267 264 264 262 254 240 224 226 226 225 225 226 226 230 235 236 238 236 243 246
307 298 300 294 290 286 286 289 288 294 295 281 278 280 279 281 289 289 297 307 298 297 293 290 278 268 264 261 256 250 235 225 225 224 224 225 222 226 228 233 233 234 241 244
303 299 295 289 288 284 286 288 290 292 295 286 281 279 288 285 287 295 298 288 295 300 295 289 277 269 262 259 256 248 241 232 224 222 222 223 225 224 228 234 236 235 240 245
303 303 294 291 288 289 290 291 291 294 296 285 289 285 287 278 292 298 294 292 284 300 293 285 283 282 272 263 256 248 242 234 226 222 220 221 221 222 225 230 234 235 240 245
310 290 294 295 296 298 299 303 303 304 300 290 272 263 305 285 289 290 298 285 280 290 288 282 279 283 270 258 254 246 244 233 230 222 219 220 220 220 222 227 231 232 238 244
321 304 304 310 309 309 308 307 309 310 294 285 262 287 289 299 293 304 305 303 299 296 296 289 288 290 276 266 260 253 239 235 227 219 218 217 219 219 219 224 228 230 235 242
324 296 303 310 308 316 313 309 307 313 311 298 294 291 290 297 307 315 313 303 303 300 297 293 288 288 276 265 263 248 235 227 222 220 214 214 215 217 219 222 226 228 231 238
313 305 303 311 316 317 308 321 313 310 309 310 316 272 306 297 301 307 310 304 304 302 299 298 294 286 280 270 246 251 238 218 216 221 211 212 212 215 217 220 223 227 230 234
320 310 298 308 315 322 319 301 312 314 315 315 320 312 306 300 309 316 317 316 320 317 301 306 310 314 277 275 249 229 227 207 211 217 209 209 208 212 214 218 214 226 229 232
326 317 321 318 311 297 308 314 301 312 315 317 318 325 318 316 321 327 321 324 320 316 307 322 338 321 314 301 210 224 225 208 205 216 211 204 206 210 214 208 224 225 227 230
324 317 323 328 306 276 280 305 315 319 319 326 320 330 320 322 325 325 325 316 318 317 316 327 325 332 357 321 230 219 197 198 204 211 209 199 201 203 210 212 219 226 228 232
331 322 331 337 279 297 306 304 315 318 324 329 314 316 317 329 332 319 336 331 324 321 320 321 331 318 308 224 212 206 197 195 213 203 202 198 198 200 209 210 218 225 228 232
334 325 329 334 331 317 316 306 324 332 322 317 320 323 334 336 335 327 342 332 336 341 334 322 323 299 272 226 195 178 200 198 198 194 195 196 197 207 212 210 216 217 226 228
338 330 318 325 330 331 311 316 326 323 327 328 323 331 340 343 340 333 332 335 340 345 345 327 324 317 265 212 208 188 180 176 192 200 198 197 207 206 208 209 215 223 231 231
338 342 340 327 322 334 325 286 290 315 323 324 326 338 346 345 353 339 336 336 336 337 358 358 350 347 293 226 188 177 181 187 189 202 203 185 191 204 207 211 213 218 226 226
328 335 339 347 327 338 311 347 318 310 315 319 326 338 345 352 353 353 345 339 334 333 347 2 355 349 5 329 170 186 189 188 193 198 209 216 199 196 199 205 214 206 223 227
321 331 335 341 336 339 314 322 323 330 331 318 315 337 342 349 350 359 349 344 337 323 330 343 352 359 345 1 103 187 180 184 194 197 203 213 212 206 196 197 216 214 220 215
325 325 330 328 336 328 318 322 320 323 325 324 324 321 325 340 345 357 355 353 349 322 322 326 352 336 329 329 243 196 200 189 180 188 198 209 209 204 201 196 199 208 229 196
314 313 318 324 324 330 316 308 316 319 319 326 329 334 327 323 331 346 1 355 344 330 320 321 334 349 358 297 272 242 220 178 183 175 206 217 200 187 195 211 219 218 196 167
303 309 314 321 323 312 320 314 308 311 318 319 326 328 330 326 321 339 353 357 356 339 331 320 327 335 360 332 231 217 191 177 182 175 204 181 214 182 203 207 190 201 184 200
289 292 298 299 304 304 306 305 307 306 309 314 322 324 333 339 323 333 346 348 360 356 348 331 316 322 33 250 198 87 214 185 176 179 162 221 213 203 217 231 173 181 182 195
289 289 288 292 297 295 298 303 307 312 306 311 318 321 327 339 338 327 338 341 351 356 354 339 337 298 263 184 219 230 19 159 155 142 169 216 214 204 217 213 166 188 211 215
285 285 286 281 287 290 288 290 297 303 305 305 313 313 321 333 339 339 331 337 339 352 352 339 340 323 259 238 209 236 232 155 141 155 155 156 164 195 204 190 193 213 220 241
285 280 279 283 285 283 288 293 292 292 299 299 305 308 319 329 332 341 334 331 332 337 347 334 324 319 284 246 234 220 202 208 169 153 154 171 183 187 202 213 226 230 233 231
275 277 278 275 280 285 285 282 284 287 284 295 292 301 312 323 331 335 336 329 328 330 334 333 320 317 296 259 230 224 210 188 186 193 186 195 204 203 209 219 220 228 229 248
Height
5784 5780 5776 5773 5770 5766 5764 5760 5758 5756 5752 5748 5748 5748 5749 5748 5745 5741 5738 5734 5732 5730 5726 5724 5725 5725 5725 5726 5729 5735 5742 5750 5758 5772 5778 5788 5796 5802 5806 5813 5819 5828 5830 5838
5777 5773 5768 5767 5763 5761 5758 5754 5750 5748 5745 5743 5743 5742 5742 5741 5737 5733 5728 5725 5721 5718 5714 5713 5713 5715 5716 5718 5720 5723 5731 5734 5743 5757 5767 5775 5784 5792 5799 5804 5809 5820 5822 5829
5770 5768 5760 5759 5756 5753 5752 5747 5743 5742 5739 5738 5737 5736 5737 5735 5727 5723 5719 5716 5714 5711 5707 5702 5702 5703 5704 5707 5709 5714 5718 5722 5728 5742 5754 5762 5771 5778 5788 5792 5799 5811 5816 5822
5763 5759 5757 5753 5750 5746 5745 5741 5737 5736 5734 5732 5732 5730 5728 5724 5720 5716 5713 5710 5706 5700 5694 5691 5690 5689 5688 5691 5694 5699 5705 5709 5715 5724 5739 5749 5762 5772 5782 5787 5792 5805 5809 5816
5756 5751 5749 5747 5743 5740 5738 5735 5732 5731 5728 5725 5727 5724 5721 5717 5713 5712 5707 5702 5695 5691 5686 5681 5678 5676 5675 5675 5678 5682 5689 5695 5701 5710 5725 5736 5748 5761 5771 5777 5783 5795 5802 5809
5751 5747 5743 5741 5738 5735 5731 5728 5726 5726 5721 5719 5720 5714 5714 5707 5704 5702 5698 5693 5688 5681 5676 5670 5663 5661 5661 5660 5660 5667 5672 5679 5684 5697 5711 5723 5738 5750 5761 5768 5775 5788 5795 5801
5745 5739 5737 5736 5734 5732 5726 5720 5716 5718 5717 5715 5712 5707 5706 5702 5697 5691 5684 5677 5672 5666 5660 5653 5648 5645 5645 5647 5643 5647 5654 5662 5670 5682 5696 5712 5726 5741 5751 5760 5767 5781 5788 5795
5741 5736 5733 5731 5729 5726 5722 5717 5714 5709 5709 5708 5708 5705 5700 5694 5690 5685 5679 5668 5657 5649 5642 5636 5631 5628 5627 5628 5628 5627 5633 5643 5654 5665 5683 5699 5716 5732 5741 5751 5760 5773 5781 5787
5737 5736 5729 5726 5725 5723 5719 5715 5713 5707 5705 5702 5704 5701 5693 5689 5686 5681 5672 5661 5649 5638 5628 5621 5617 5612 5607 5607 5611 5610 5611 5626 5637 5653 5670 5688 5704 5722 5733 5744 5753 5764 5772 5777
5735 5731 5727 5725 5722 5719 5714 5713 5710 5705 5699 5696 5697 5695 5684 5683 5679 5671 5663 5651 5640 5629 5618 5615 5608 5593 5596 5591 5589 5587 5595 5610 5626 5641 5658 5677 5695 5712 5724 5738 5747 5756 5763 5768
5731 5728 5726 5721 5718 5715 5712 5710 5707 5703 5700 5693 5688 5691 5680 5676 5669 5661 5654 5644 5634 5626 5615 5610 5600 5593 5587 5582 5582 5585 5594 5605 5621 5638 5653 5674 5692 5706 5719 5731 5735 5745 5749 5764
5728 5724 5721 5718 5713 5712 5711 5707 5703 5699 5698 5692 5687 5685 5677 5672 5666 5656 5649 5640 5630 5622 5614 5606 5597 5593 5583 5583 5587 5587 5595 5611 5621 5634 5654 5667 5651 5693 5707 5722 5729 5733 5748 5757
5726 5722 5719 5716 5714 5710 5706 5704 5700 5698 5693 5691 5684 5682 5676 5670 5664 5652 5643 5635 5627 5620 5615 5606 5602 5595 5593 5585 5587 5594 5606 5617 5623 5627 5651 5665 5666 5682 5697 5708 5720 5732 5741 5750
5723 5719 5716 5714 5711 5706 5704 5701 5698 5695 5689 5687 5683 5677 5671 5666 5660 5649 5642 5633 5626 5619 5615 5606 5605 5601 5598 5592 5585 5586 5607 5616 5621 5632 5647 5663 5670 5684 5695 5707 5719 5721 5731 5739
5722 5718 5714 5711 5707 5704 5700 5697 5695 5693 5689 5684 5680 5674 5668 5661 5655 5645 5638 5632 5626 5619 5616 5607 5600 5595 5594 5594 5591 5594 5598 5609 5618 5631 5643 5656 5655 5677 5691 5701 5708 5716 5725 5734
5718 5715 5711 5708 5705 5700 5697 5691 5690 5689 5686 5682 5676 5672 5666 5661 5652 5648 5638 5633 5626 5619 5617 5610 5601 5595 5594 5593 5594 5598 5604 5614 5622 5631 5643 5648 5656 5672 5685 5696 5705 5712 5720 5728
5716 5712 5708 5705 5702 5698 5695 5690 5689 5686 5682 5678 5674 5668 5663 5657 5652 5646 5639 5632 5626 5620 5617 5615 5608 5602 5602 5597 5599 5600 5604 5616 5622 5630 5639 5646 5642 5664 5680 5695 5702 5709 5713 5722
5713 5710 5706 5703 5699 5697 5694 5689 5686 5682 5676 5674 5669 5666 5661 5654 5647 5645 5636 5631 5626 5620 5618 5614 5613 5609 5607 5601 5601 5604 5607 5612 5620 5630 5641 5649 5651 5657 5668 5687 5698 5702 5707 5710
5709 5707 5704 5701 5697 5694 5691 5688 5684 5680 5676 5670 5667 5665 5661 5656 5649 5643 5638 5631 5627 5621 5617 5614 5613 5613 5610 5608 5606 5608 5608 5613 5621 5630 5640 5649 5656 5660 5672 5685 5690 5696 5702 5705
5705 5703 5702 5698 5694 5690 5687 5686 5682 5678 5673 5668 5664 5660 5657 5655 5652 5646 5641 5635 5629 5624 5620 5617 5615 5613 5612 5609 5608 5608 5611 5616 5627 5640 5643 5651 5660 5659 5669 5681 5687 5693 5696 5705
5699 5697 5695 5692 5691 5689 5684 5681 5678 5675 5673 5667 5663 5659 5655 5652 5648 5643 5639 5635 5631 5626 5621 5618 5615 5614 5613 5610 5612 5612 5613 5624 5632 5633 5642 5650 5656 5661 5670 5678 5683 5689 5695 5703
5695 5692 5691 5689 5688 5686 5681 5678 5675 5672 5668 5664 5662 5657 5653 5650 5645 5641 5636 5633 5632 5628 5624 5620 5619 5616 5616 5615 5617 5619 5621 5627 5628 5630 5636 5646 5655 5663 5671 5679 5678 5689 5696 5701
5687 5686 5687 5685 5682 5680 5677 5674 5671 5668 5665 5662 5659 5656 5652 5649 5644 5640 5636 5631 5630 5630 5625 5622 5618 5619 5621 5622 5622 5624 5623 5628 5630 5629 5637 5644 5654 5662 5671 5678 5681 5687 5693 5697
5680 5679 5678 5677 5678 5673 5673 5669 5667 5665 5661 5659 5657 5653 5650 5648 5643 5639 5635 5631 5626 5627 5624 5622 5621 5617 5619 5622 5624 5626 5626 5629 5633 5639 5644 5650 5655 5663 5671 5677 5680 5688 5691 5693
5673 5671 5670 5670 5670 5668 5667 5664 5662 5660 5658 5655 5653 5650 5648 5645 5641 5637 5634 5631 5625 5622 5623 5621 5619 5619 5617 5618 5621 5625 5628 5632 5636 5640 5645 5651 5657 5662 5668 5673 5679 5682 5686 5690
5663 5661 5660 5663 5663 5661 5661 5659 5656 5655 5653 5651 5649 5647 5645 5643 5640 5635 5632 5631 5627 5621 5619 5618 5615 5614 5614 5614 5618 5623 5626 5631 5637 5643 5649 5654 5659 5663 5667 5671 5675 5680 5685 5687